Date_and_time,latitude,longitude,wind_speed,RelWindDirFrom,WindDirFrom,air_pressure,air_temperature,relative_humidity,Temp,platform_speed_wrt_ground,air_pressure_at_mean_sea_level,platform_orientation
2019-01-19 23:50,50.6304583333333,-96.9807683333333,5.1,6.8,329,1005.89,-27.1,61,0.32,0.0,1037.35,48.3
2019-01-20 00:00,50.6304566666667,-96.9807683333333,4.6,6.4,323,1006.06,-27.2,61,0.33,0.0,1037.52,48.3
2019-01-20 00:10,50.6304566666667,-96.9807683333333,3.8,5.5,321,1006.15,-27.3,61,0.33,0.0,1037.63,48.3
2019-01-20 00:20,50.6304566666667,-96.9807666666667,4.5,6.5,301,1006.22,-27.3,62,0.33,0.0,1037.71,48.3
2019-01-20 00:30,50.630455,-96.9807683333333,4.1,5.7,320,1005.96,-27.4,63,0.33,0.0,1037.46,48.3
2019-01-20 00:40,50.6304633333333,-96.9807816666667,3.8,4.9,321,1005.83,-27.7,63,0.33,0.0,1037.35,48.3
2019-01-20 00:50,50.6304533333333,-96.9807633333333,3.9,6.2,322,1005.82,-27.8,63,0.33,0.0,1037.36,48.3
2019-01-20 01:00,50.63045,-96.9807583333333,3.9,5.3,314,1005.93,-27.8,63,0.33,0.0,1037.48,360.0
2019-01-20 01:10,50.63045,-96.9807566666667,4.3,7.0,330,1005.78,-27.8,63,0.33,0.0,1037.34,360.0
2019-01-20 01:20,50.63045,-96.9807583333333,5.8,8.5,353,1005.61,-28.0,64,0.33,0.0,1037.19,360.0
2019-01-20 01:30,50.63045,-96.9807616666667,6.9,8.4,2,1005.44,-28.1,64,0.34,0.0,1037.02,360.0
2019-01-20 01:40,50.6304266666667,-96.9807133333333,7.2,8.6,4,1005.30,-28.1,64,0.34,0.0,1036.89,360.0
2019-01-20 01:50,50.6304483333333,-96.9807716666667,7.8,9.6,7,1005.11,-28.2,64,0.34,0.0,1036.71,360.0
2019-01-20 02:00,50.6304633333333,-96.9807766666667,8.5,10.3,7,1005.10,-28.2,64,0.34,0.0,1036.70,347.4
2019-01-20 02:10,50.6304533333333,-96.98077,8.7,10.7,6,1005.06,-28.3,64,0.34,0.0,1036.67,347.4
2019-01-20 02:20,50.6304366666667,-96.9807583333333,8.7,10.5,5,1005.01,-28.5,65,0.34,0.0,1036.64,347.4
2019-01-20 02:30,50.6304466666667,-96.98076,7.4,10.0,1,1005.16,-28.5,65,0.34,0.0,1036.80,347.4
2019-01-20 02:40,50.630445,-96.9807683333333,8.1,9.9,2,1005.29,-28.6,65,0.34,0.0,1036.95,347.4
2019-01-20 02:50,50.6304483333333,-96.9807616666667,7.6,9.4,360,1005.43,-28.8,65,0.34,0.0,1037.11,347.4
2019-01-20 03:00,50.6304466666667,-96.98076,6.8,8.3,350,1005.67,-29.1,65,0.34,0.0,1037.38,131.7
2019-01-20 03:10,50.6304466666667,-96.9807616666667,5.6,6.9,344,1005.91,-29.3,66,0.33,0.0,1037.65,131.7
2019-01-20 03:20,50.6304483333333,-96.980765,5.3,6.8,344,1006.13,-29.4,66,0.34,0.0,1037.89,131.7
2019-01-20 03:30,50.63045,-96.9807666666667,5.6,7.2,345,1006.29,-29.5,66,0.33,0.0,1038.07,131.7
2019-01-20 03:40,50.63045,-96.980765,4.5,6.2,340,1006.44,-29.6,66,0.32,0.0,1038.23,131.7
2019-01-20 03:50,50.6304516666667,-96.9807666666667,4.5,6.3,339,1006.54,-29.7,66,0.32,0.0,1038.35,131.7
2019-01-20 04:00,50.6304516666667,-96.980765,4.9,6.0,349,1006.48,-29.8,67,0.32,0.0,1038.30,270.0
2019-01-20 04:10,50.6304533333333,-96.980765,5.0,6.1,351,1006.43,-29.9,67,0.32,0.0,1038.26,270.0
2019-01-20 04:20,50.6304533333333,-96.980765,5.9,7.7,358,1006.37,-30.0,67,0.32,0.0,1038.21,270.0
2019-01-20 04:30,50.630455,-96.9807766666667,7.7,9.3,5,1006.21,-30.2,67,0.32,0.0,1038.06,270.0
2019-01-20 04:40,50.63046,-96.980775,7.2,8.9,360,1006.21,-30.3,67,0.31,0.0,1038.08,270.0
2019-01-20 04:50,50.63045,-96.9807566666667,7.6,9.3,1,1006.18,-30.5,67,0.31,0.0,1038.08,270.0
2019-01-20 05:00,50.6304516666667,-96.98076,6.6,8.8,355,1006.25,-30.7,67,0.31,0.0,1038.18,143.4
2019-01-20 05:10,50.6304516666667,-96.9807616666667,4.3,6.9,326,1006.38,-30.9,67,0.31,0.0,1038.34,143.4
2019-01-20 05:20,50.6304516666667,-96.9807583333333,4.2,5.5,330,1006.37,-31.0,67,0.31,0.0,1038.34,143.4
2019-01-20 05:30,50.6304516666667,-96.9807616666667,4.7,6.1,348,1006.36,-31.0,67,0.30,0.0,1038.34,143.4
2019-01-20 05:40,50.6304516666667,-96.98076,4.5,6.2,337,1006.42,-31.1,67,0.30,0.0,1038.41,143.4
2019-01-20 05:50,50.6304533333333,-96.9807616666667,3.3,5.0,298,1006.62,-31.3,67,0.30,0.0,1038.64,143.4
2019-01-20 06:00,50.6304533333333,-96.980765,3.4,5.0,337,1006.69,-31.4,68,0.30,0.0,1038.73,311.7
2019-01-20 06:10,50.6304533333333,-96.9807666666667,3.9,4.8,346,1006.68,-31.6,68,0.29,0.0,1038.74,311.7
2019-01-20 06:20,50.63046,-96.9807666666667,5.1,6.0,357,1006.54,-31.7,67,0.29,0.0,1038.61,311.7
2019-01-20 06:30,50.6304583333333,-96.9807666666667,6.6,7.9,3,1006.49,-31.7,67,0.29,0.0,1038.57,311.7
2019-01-20 06:40,50.63046,-96.9807616666667,6.9,8.3,359,1006.60,-31.7,67,0.29,0.0,1038.69,311.7
2019-01-20 06:50,50.6304583333333,-96.98076,5.5,7.4,354,1006.75,-31.7,67,0.29,0.0,1038.86,311.7
2019-01-20 07:00,50.630455,-96.9807616666667,4.8,6.0,353,1006.84,-31.8,67,0.29,0.0,1038.97,90.0
2019-01-20 07:10,50.6304583333333,-96.9807533333333,4.9,6.4,347,1006.89,-31.9,67,0.28,0.0,1039.04,90.0
2019-01-20 07:20,50.6304683333333,-96.9807783333333,5.2,6.3,352,1006.94,-32.1,67,0.28,0.0,1039.11,90.0
2019-01-20 07:30,50.630465,-96.980775,5.9,7.2,1,1006.86,-32.1,67,0.27,0.0,1039.03,90.0
2019-01-20 07:40,50.630455,-96.9807733333333,6.4,7.7,2,1006.85,-32.1,67,0.32,0.0,1039.03,90.0
2019-01-20 07:50,50.630465,-96.980765,6.0,7.4,5,1006.94,-32.1,67,0.27,0.0,1039.13,90.0
2019-01-20 08:00,50.63046,-96.9807633333333,5.8,6.9,1,1006.89,-32.2,67,0.27,0.0,1039.10,311.7
2019-01-20 08:10,50.6304583333333,-96.9807666666667,6.1,8.1,4,1006.85,-32.3,67,0.26,0.0,1039.07,311.7
2019-01-20 08:20,50.6304566666667,-96.9807666666667,5.1,6.2,1,1006.90,-32.3,67,0.26,0.0,1039.12,311.7
2019-01-20 08:30,50.630465,-96.980785,4.2,5.7,355,1007.07,-32.2,67,0.26,0.0,1039.29,311.7
2019-01-20 08:40,50.6304266666667,-96.9807533333333,2.7,4.2,329,1007.17,-32.3,66,0.26,0.0,1039.40,311.7
2019-01-20 08:50,50.6304766666667,-96.98076,2.9,3.9,336,1007.28,-32.3,66,0.25,0.0,1039.53,311.7
2019-01-20 09:00,50.63046,-96.9807733333333,2.6,3.8,337,1007.44,-32.5,66,0.25,0.0,1039.70,347.4
2019-01-20 09:10,50.6304566666667,-96.9807666666667,3.1,4.2,338,1007.50,-32.4,66,0.25,0.0,1039.78,347.4
2019-01-20 09:20,50.630455,-96.9807666666667,3.9,5.3,342,1007.25,-32.6,66,0.25,0.0,1039.53,347.4
2019-01-20 09:30,50.6304533333333,-96.9807666666667,4.7,5.9,359,1007.13,-32.5,66,0.25,0.0,1039.41,347.4
2019-01-20 09:40,50.630455,-96.9807683333333,4.9,5.9,4,1007.13,-32.5,66,0.24,0.0,1039.40,347.4
2019-01-20 09:50,50.6304516666667,-96.9807816666667,4.9,5.7,7,1007.25,-32.4,67,0.24,0.0,1039.52,347.4
2019-01-20 10:00,50.6304466666667,-96.980765,4.3,5.9,4,1007.39,-32.3,67,0.25,0.0,1039.66,228.3
2019-01-20 10:10,50.6304516666667,-96.980765,3.9,5.1,5,1007.52,-32.3,66,0.25,0.0,1039.81,228.3
2019-01-20 10:20,50.630455,-96.9807616666667,4.1,4.9,5,1007.59,-32.3,66,0.25,0.0,1039.87,228.3
2019-01-20 10:30,50.6304583333333,-96.9807566666667,3.6,4.4,4,1007.54,-32.3,66,0.25,0.0,1039.82,228.3
2019-01-20 10:40,50.6304583333333,-96.9807583333333,3.8,4.4,0,1007.42,-32.3,66,0.25,0.0,1039.71,228.3
2019-01-20 10:50,50.6304533333333,-96.9807816666667,3.9,4.8,7,1007.44,-32.4,66,0.25,0.0,1039.74,228.3
2019-01-20 11:00,50.6304533333333,-96.9807716666667,4.1,5.1,10,1007.44,-32.4,66,0.25,0.0,1039.74,192.6
2019-01-20 11:10,50.6304516666667,-96.980775,4.7,5.8,9,1007.41,-32.4,66,0.25,0.0,1039.72,192.6
2019-01-20 11:20,50.6304516666667,-96.980775,4.6,6.1,6,1007.50,-32.5,66,0.25,0.0,1039.81,192.6
2019-01-20 11:30,50.6304433333333,-96.9807833333333,3.9,5.3,357,1007.63,-32.6,66,0.25,0.0,1039.95,192.6
2019-01-20 11:40,50.6304483333333,-96.980775,3.8,4.6,4,1007.75,-32.7,66,0.25,0.0,1040.07,192.6
2019-01-20 11:50,50.6304483333333,-96.9807716666667,3.1,4.4,353,1007.83,-32.8,66,0.25,0.0,1040.15,192.6
2019-01-20 12:00,50.6304483333333,-96.98077,2.0,3.1,335,1007.83,-33.0,66,0.25,0.0,1040.17,165.5
2019-01-20 12:10,50.6304516666667,-96.9807683333333,2.2,3.2,344,1007.87,-33.0,66,0.24,0.0,1040.21,165.5
2019-01-20 12:20,50.630455,-96.98077,2.4,3.0,357,1007.86,-33.2,65,0.24,0.0,1040.22,165.5
2019-01-20 12:30,50.630455,-96.98077,2.6,3.4,7,1007.94,-33.1,66,0.24,0.0,1040.30,165.5
2019-01-20 12:40,50.630455,-96.9807716666667,1.6,2.6,0,1007.94,-33.0,66,0.24,0.0,1040.30,165.5
2019-01-20 12:50,50.63045,-96.9807583333333,0.3,1.4,2,1007.89,-33.0,66,0.24,0.0,1040.24,165.5
2019-01-20 13:00,50.6304666666667,-96.9807716666667,0.0,0.7,0,1007.80,-33.0,65,0.24,0.0,1040.15,360.0
2019-01-20 13:10,50.6304483333333,-96.9807533333333,1.3,2.1,7,1007.68,-32.8,66,0.25,0.0,1040.02,360.0
2019-01-20 13:20,50.63046,-96.9807866666667,0.7,1.8,16,1007.64,-32.8,66,0.24,0.0,1039.98,360.0
2019-01-20 13:30,50.6304533333333,-96.9807666666667,0.8,1.8,29,1007.63,-32.9,66,0.24,0.0,1039.99,360.0
2019-01-20 13:40,50.6304516666667,-96.9807616666667,1.1,2.1,39,1007.66,-33.0,66,0.24,0.0,1040.02,360.0
2019-01-20 13:50,50.6304566666667,-96.9807616666667,0.2,1.1,33,1007.68,-33.2,65,0.24,0.0,1040.08,360.0
2019-01-20 14:00,50.630455,-96.9807633333333,0.1,1.0,35,1007.71,-33.7,64,0.24,0.0,1040.14,90.0
2019-01-20 14:10,50.6304533333333,-96.9807633333333,0.8,1.7,50,1007.79,-33.9,65,0.24,0.0,1040.25,90.0
2019-01-20 14:20,50.6304533333333,-96.9807616666667,0.9,2.2,42,1007.75,-33.8,65,0.24,0.0,1040.20,90.0
2019-01-20 14:30,50.6304533333333,-96.9807616666667,0.2,1.6,39,1007.80,-33.9,64,0.24,0.0,1040.25,90.0
2019-01-20 14:40,50.6304533333333,-96.98076,0.9,1.6,40,1007.79,-33.3,64,0.24,0.0,1040.19,90.0
2019-01-20 14:50,50.6304533333333,-96.98076,0.5,1.6,34,1007.81,-32.6,64,0.24,0.0,1040.17,90.0
2019-01-20 15:00,50.6304533333333,-96.9807616666667,0.6,1.6,40,1007.78,-32.1,63,0.23,0.0,1040.09,48.3
2019-01-20 15:10,50.630455,-96.9807616666667,1.2,1.9,39,1007.84,-31.8,63,0.23,0.0,1040.14,48.3
2019-01-20 15:20,50.630455,-96.9807633333333,0.6,2.7,94,1008.07,-31.1,63,0.23,0.0,1040.33,48.3
2019-01-20 15:30,50.630455,-96.9807633333333,1.4,2.8,109,1008.00,-29.9,62,0.24,0.0,1040.18,48.3
2019-01-20 15:40,50.630455,-96.9807633333333,1.8,3.0,125,1008.00,-29.8,61,0.24,0.0,1040.19,48.3
2019-01-20 15:50,50.630455,-96.9807633333333,2.5,4.5,147,1008.04,-30.8,61,0.23,0.0,1040.34,48.3
2019-01-20 16:00,50.6304566666667,-96.9807633333333,2.4,3.9,163,1008.05,-31.3,62,0.23,0.0,1040.39,360.0
2019-01-20 16:10,50.6304566666667,-96.9807616666667,2.1,3.0,181,1008.07,-31.2,62,0.24,0.0,1040.40,360.0
2019-01-20 16:20,50.6304566666667,-96.9807616666667,4.1,6.7,145,1008.00,-30.6,63,0.24,0.0,1040.29,360.0
2019-01-20 16:30,50.6304566666667,-96.9807616666667,6.5,7.7,140,1007.85,-29.8,63,0.23,0.0,1040.04,360.0
2019-01-20 16:40,50.6304566666667,-96.9807616666667,5.9,7.1,142,1007.86,-29.5,63,0.23,0.0,1039.98,360.0
2019-01-20 16:50,50.630445,-96.9807483333333,6.2,7.8,143,1007.86,-29.4,63,0.23,0.0,1039.95,360.0
2019-01-20 17:00,50.6304466666667,-96.9807583333333,6.2,7.3,145,1007.80,-29.2,63,0.23,0.0,1039.86,131.7
2019-01-20 17:10,50.6304466666667,-96.98076,5.9,7.3,148,1007.79,-28.9,63,0.23,0.0,1039.77,131.7
2019-01-20 17:20,50.6304483333333,-96.98076,6.4,7.7,147,1007.68,-28.7,63,0.23,0.0,1039.57,131.7
2019-01-20 17:30,50.6304483333333,-96.9807616666667,6.7,8.3,152,1007.69,-28.5,63,0.23,0.0,1039.56,131.7
2019-01-20 17:40,50.6304483333333,-96.9807616666667,7.2,8.6,150,1007.56,-28.4,63,0.23,0.0,1039.48,131.7
2019-01-20 17:50,50.6304483333333,-96.9807633333333,7.4,9.2,149,1007.45,-28.0,63,0.23,0.0,1039.38,131.7
2019-01-20 18:00,50.6304483333333,-96.9807633333333,7.7,9.9,154,1007.46,-27.6,63,0.23,0.0,1039.36,228.3
2019-01-20 18:10,50.63045,-96.980765,7.9,9.4,155,1007.54,-27.3,63,0.23,0.0,1039.38,228.3
2019-01-20 18:20,50.63045,-96.980765,7.6,9.7,151,1007.44,-27.0,63,0.23,0.0,1039.19,228.3
2019-01-20 18:30,50.63045,-96.980765,7.3,9.1,153,1007.33,-26.6,63,0.22,0.0,1039.04,228.3
2019-01-20 18:40,50.63045,-96.9807666666667,7.6,9.2,151,1007.11,-26.3,63,0.23,0.0,1038.79,228.3
2019-01-20 18:50,50.63045,-96.980765,7.7,9.1,145,1006.90,-25.9,63,0.23,0.0,1038.54,228.3
2019-01-20 19:00,50.63045,-96.9807666666667,7.8,9.0,140,1006.71,-25.6,63,0.23,0.0,1038.30,90.0
2019-01-20 19:10,50.63045,-96.9807666666667,7.5,8.6,143,1006.57,-25.4,62,0.23,0.0,1038.13,90.0
2019-01-20 19:20,50.63045,-96.9807666666667,7.6,8.6,143,1006.43,-25.1,62,0.23,0.0,1037.96,90.0
2019-01-20 19:30,50.63045,-96.9807666666667,7.4,8.3,140,1006.38,-24.9,61,0.23,0.0,1037.88,90.0
2019-01-20 19:40,50.63045,-96.9807666666667,7.0,8.2,137,1006.34,-24.6,61,0.23,0.0,1037.79,90.0
2019-01-20 19:50,50.63045,-96.9807666666667,7.4,8.3,138,1006.20,-24.6,61,0.23,0.0,1037.62,90.0
2019-01-20 20:00,50.63045,-96.9807666666667,7.0,8.0,139,1006.09,-24.4,62,0.23,0.0,1037.48,347.4
2019-01-20 20:10,50.63045,-96.9807683333333,7.8,8.9,140,1006.04,-24.4,62,0.23,0.0,1037.40,347.4
2019-01-20 20:20,50.630445,-96.9807783333333,7.9,9.0,138,1005.90,-24.1,62,0.23,0.0,1037.22,347.4
2019-01-20 20:30,50.6304483333333,-96.9807766666667,8.6,9.7,140,1005.75,-24.1,61,0.23,0.0,1037.04,347.4
2019-01-20 20:40,50.6304483333333,-96.9807733333333,8.2,9.7,140,1005.60,-23.9,62,0.23,0.0,1036.86,347.4
2019-01-20 20:50,50.6304483333333,-96.9807716666667,6.9,9.4,136,1005.46,-23.6,62,0.23,0.0,1036.66,347.4
2019-01-20 21:00,50.63045,-96.9807716666667,8.0,10.1,120,1005.31,-23.0,63,0.23,0.0,1036.46,347.4
2019-01-20 21:10,50.63045,-96.98077,8.7,10.5,129,1005.24,-23.3,63,0.23,0.0,1036.39,347.4
2019-01-20 21:20,50.6304516666667,-96.98077,9.7,11.6,137,1005.17,-23.6,62,0.24,0.0,1036.33,347.4
2019-01-20 21:30,50.6304516666667,-96.9807683333333,9.8,11.3,140,1005.06,-23.6,62,0.24,0.0,1036.20,347.4
2019-01-20 21:40,50.63042,-96.9807533333333,9.5,11.1,141,1004.93,-23.7,61,0.24,0.0,1036.06,347.4
2019-01-20 21:50,50.6304433333333,-96.9807533333333,9.4,10.9,145,1004.79,-23.8,62,0.24,0.0,1035.91,347.4
2019-01-20 22:00,50.630445,-96.98076,8.5,10.7,154,1004.66,-23.8,61,0.24,0.0,1035.77,360.0
2019-01-20 22:10,50.6304583333333,-96.980775,7.6,9.3,154,1004.63,-23.9,62,0.25,0.0,1035.74,360.0
2019-01-20 22:20,50.6304483333333,-96.9807833333333,7.3,8.8,159,1004.50,-23.9,61,0.25,0.0,1035.60,360.0
2019-01-20 22:30,50.6304483333333,-96.9807733333333,6.9,7.9,156,1004.23,-24.1,61,0.25,0.0,1035.33,360.0
2019-01-20 22:40,50.6304516666667,-96.9807716666667,6.2,7.2,162,1004.13,-24.4,63,0.26,0.0,1035.22,360.0
2019-01-20 22:50,50.6304533333333,-96.9807666666667,5.5,6.0,165,1004.06,-24.7,64,0.26,0.0,1035.12,360.0
2019-01-20 23:00,50.6304533333333,-96.980765,5.5,6.6,160,1003.97,-25.1,65,0.27,0.0,1035.08,90.0
2019-01-20 23:10,50.630455,-96.980765,5.0,6.1,149,1003.95,-25.5,67,0.27,0.0,1035.10,90.0
2019-01-20 23:20,50.630455,-96.980765,4.4,5.3,134,1003.87,-25.7,67,0.28,0.0,1035.03,90.0
2019-01-20 23:30,50.630445,-96.9807683333333,3.8,4.6,136,1003.78,-26.0,67,0.28,0.0,1034.97,90.0
